Regional Weather Roundup
Issued by NWS

Home | Current Version | Previous Version | Text Only | Print | Product List | Glossary On
Versions: 1 2 3 4 5 6 7 8 9 10 11 12 13 14 15 16 17 18 19 20 21 22 23 24 25 26 27 28 29 30 31 32 33 34 35 36 37 38 39 40 41 42 43 44 45 46 47 48 49 50
000
ASUS46 KSTO 181415
RWRCA

NORTHERN AND CENTRAL CA REGIONAL WEATHER ROUNDUP
NATIONAL WEATHER SERVICE SACRAMENTO CA
600 AM PST THU JAN 18 2018

NOTE: FAIR INDICATES FEW OR NO CLOUDS BELOW 12,000 FEET WITH NO
SIGNIFICANT WEATHER AND/OR OBSTRUCTIONS TO VISIBILITY.

CAZ001-003-181500-
NORTHWEST AREA

CITY           SKY/WX    TMP DP  RH WIND       PRES   REMARKS
CRESCENT CITY  CLOUDY    55  51  86 S14       30.01F FOG
UKIAH          LGT RAIN  53  50  89 SE12      30.05F
$$

CAZ006-505>513-181500-
BAY AREA

CITY           SKY/WX    TMP DP  RH WIND       PRES   REMARKS
SANTA ROSA     CLOUDY    51  51 100 CALM      30.07F FOG
SAN RAFAEL     N/A       MM  MM  MM MISG
NAPA           CLOUDY    50  49  96 E6        30.11S FOG
CONCORD        PTCLDY    51  48  89 SW8       30.12S
OAKLAND CITY   N/A       MM  MM  MM MISG
OAKLAND        CLOUDY    52  52 100 SE7       30.13R FOG
SAN FRAN CITY  N/A       52  MM  99 MISG
SAN FRAN ARPT  CLOUDY    51  49  92 SE7       30.12R FOG
LIVERMORE      CLOUDY    50  49  96 VRB3      30.11S FOG
HAYWARD        FOG       51  48  89 SE5       30.12R VSB 1/2
REDWOOD CITY   N/A       50  MM  99 MISG
MOFFETT ARPT   CLOUDY    48  32  53 S7        30.12F HAZE
SAN JOSE ARPT  CLOUDY    53  52  96 S6        30.11F FOG
$$
CAZ034-037-514>518-181500-
CENTRAL COAST

CITY           SKY/WX    TMP DP  RH WIND       PRES   REMARKS
WATSONVILLE    FOG       47  46  97 CALM      30.12F VSB 3/4
SALINAS        PTCLDY    47  46  97 E3        30.12F
MONTEREY       CLEAR     50  49  96 E8        30.12S
SAN LUIS OBISP PTCLDY    48  47  96 MISG      30.11F
SANTA MARIA    CLEAR     50  49  96 SE5       30.11F
$$
CAZ015-016-181500-
NORTHERN SACRAMENTO VALLEY

CITY           SKY/WX    TMP DP  RH WIND       PRES   REMARKS
REDDING        CLOUDY    52  49  89 SW12      30.01F
RED BLUFF      CLOUDY    51  49  92 S14       30.04F FOG
OROVILLE       CLOUDY    50  49  96 S16       30.09F FOG
$$
CAZ016>018-181500-
SOUTHERN SACRAMENTO VALLEY

CITY           SKY/WX    TMP DP  RH WIND       PRES   REMARKS
AUBURN         PTCLDY    46  45  93 SW3       30.10F
BEALE AFB      FOG       49  48  98 SE13      30.09S VSB 1
LINCOLN        CLOUDY   N/A N/A N/A CALM      30.12R
MARYSVILLE     CLOUDY    49  47  93 S14       30.11F FOG
SAC INTL ARPT  CLOUDY    50  50 100 S9        30.12R FOG
MATHER AIRPORT FOG       48  48 100 S8        30.11F VSB 1/2
DOWNTOWN SAC   N/A       50  MM  MM MISG
SAC EXEC ARPT  CLOUDY    50  50 100 S5        30.12S FOG
VACAVILLE      CLOUDY    51  51 100 S6        30.12S FOG
TRAVIS AFB     CLOUDY    50  50 100 CALM      30.11S
$$
CAZ019>021-181500-
SAN JOAQUIN VALLEY

CITY           SKY/WX    TMP DP  RH WIND       PRES   REMARKS
STOCKTON       CLOUDY    51  51 100 S7        30.11F FOG
MODESTO        CLOUDY    51  50  96 SE6       30.12F FOG
MERCED         FOG       49  47  93 SE7       30.13F VSB 3/4
LEMOORE        CLOUDY    50  49  96 S5        30.15F
FRESNO         FOG       49  49 100 CALM      30.15S VSB 1
HANFORD        CLOUDY    50  49  96 S6        30.15F FOG
PORTERVILLE    FOG       49  48  97 S5        30.16F VSB 1/4
BAKERSFIELD    FOG       47  46  97 N12       30.15S VSB 1/4
$$
CAZ011-012-071-181500-
NORTHERN MOUNTAINS

CITY           SKY/WX    TMP DP  RH WIND       PRES   REMARKS
YREKA          RAIN      45  42  89 SW10      29.97S
MOUNT SHASTA   LGT RAIN  42  41  96 E5        29.98S
ALTURAS        PTCLDY    47  36  65 S24G31    29.94F
$$
CAZ011-012-071-181500-
SIERRA NEVADA MTNS

CITY           SKY/WX    TMP DP  RH WIND       PRES   REMARKS
BLUE CANYON    CLEAR     46  35  65 SE10G20   30.14F
TAHOE VLY ARPT CLEAR     46  33  60 S13G22    30.12F
MAMMOTH LAKES  FAIR      28  25  86 N5        30.24F WCI  23
$$




USA.gov is the U.S. government's official web portal to all federal, state and local government web resources and services.